FW2439 Weather Reports


time (UTC)temp
F
wind
direction
speed
knots
gust
knots
rain 1hr
in
rain 24hr
in
rain mn
in
humidity
%
barometer
mb
20260503010042 59 334 0.0 2.6 0.00 0.00 0.00 61 1018.9
20260503004541 60 168 1.7 5.2 0.00 0.00 0.00 59 1018.6
20260503003042 61 315 1.7 6.1 0.00 0.00 0.00 55 1018.4
20260503001540 62 214 0.0 5.2 0.00 0.00 0.00 47 1018.0
20260503000040 62 276 0.9 2.6 0.00 0.00 0.00 48 1017.8
20260502234556 63 90 0.9 7.8 0.00 0.00 0.00 45 1017.5
20260502233038 64 24 2.6 6.1 0.00 0.00 0.00 44 1017.3
20260502231537 65 50 0.9 5.2 0.00 0.00 0.00 44 1017.2
20260502230037 66 122 0.0 6.1 0.00 0.00 0.00 42 1017.3
20260502224535 67 331 1.7 5.2 0.00 0.00 0.00 40 1017.3
20260502223034 67 316 0.9 7.0 0.00 0.00 0.00 42 1017.2
20260502221531 68 281 0.9 7.8 0.00 0.00 0.00 42 1017.1
20260502220032 69 323 2.6 7.0 0.00 0.00 0.00 43 1017.1
20260502214530 67 286 2.6 12.2 0.00 0.00 0.00 42 1016.8
20260502213037 69 257 2.6 8.7 0.00 0.00 0.00 40 1016.6
20260502211528 68 253 2.6 9.6 0.00 0.00 0.00 43 1016.8
20260502210025 69 207 1.7 7.0 0.00 0.00 0.00 41 1016.8
20260502204524 68 248 2.6 12.2 0.00 0.00 0.00 43 1016.7
20260502203021 68 260 2.6 8.7 0.00 0.00 0.00 41 1016.9
20260502201532 66 259 0.0 6.1 0.00 0.00 0.00 48 1017.0
20260502200021 67 254 0.9 7.0 0.00 0.00 0.00 45 1017.1
20260502194519 68 235 2.6 7.8 0.00 0.00 0.00 41 1017.1
20260502193018 68 257 0.9 7.8 0.00 0.00 0.00 45 1017.1
20260502191517 70 274 0.9 8.7 0.00 0.00 0.00 43 1017.0
20260502190014 68 248 0.9 4.3 0.00 0.00 0.00 44 1017.4
20260502184513 68 223 1.7 7.0 0.00 0.00 0.00 47 1017.6
20260502183012 67 331 0.9 4.3 0.00 0.00 0.00 46 1017.7
20260502181512 66 284 0.9 5.2 0.00 0.00 0.00 48 1017.9
20260502163004 66 344 1.7 4.3 0.00 0.00 0.00 44 1018.9
20260502161504 65 210 1.7 7.0 0.00 0.00 0.00 43 1019.0
20260502151614 65 229 0.0 0.9 0.00 0.00 0.00 51 1019.0
20260502123029 44 261 0.0 0.0 0.00 0.00 0.00 96 1018.3
20260502121531 43 261 0.0 0.0 0.00 0.00 0.00 96 1018.2
20260502114528 41 261 0.0 0.0 0.00 0.00 0.00 95 1018.0
20260502113027 41 261 0.0 0.0 0.00 0.00 0.00 95 1017.7
20260502111524 40 261 0.0 1.7 0.00 0.00 0.00 95 1017.5
20260502110023 40 271 0.0 0.0 0.00 0.00 0.00 94 1017.5
20260502104526 41 271 0.0 0.0 0.00 0.00 0.00 94 1017.5
20260502103019 41 271 0.0 0.0 0.00 0.00 0.00 93 1017.4
20260502101516 41 271 0.0 0.0 0.00 0.00 0.00 93 1017.3
20260502091516 43 271 0.0 0.0 0.00 0.00 0.00 91 1017.0
20260502070106 48 271 0.0 0.0 0.00 0.00 0.00 86 1017.4
20260502064549 48 271 0.0 0.0 0.00 0.00 0.00 83 1017.6
20260502063044 48 271 0.0 0.0 0.00 0.00 0.00 83 1017.8
20260502061543 49 271 0.0 0.0 0.00 0.00 0.00 82 1017.8
20260502060044 49 271 0.0 0.0 0.00 0.00 0.00 82 1017.8
20260502054554 50 271 0.0 0.0 0.00 0.00 0.00 80 1017.7
20260502053036 50 271 0.0 0.0 0.00 0.00 0.00 80 1017.9
20260502051536 51 271 0.0 0.0 0.00 0.00 0.00 78 1018.0
20260502050030 51 271 0.0 0.0 0.00 0.00 0.00 75 1017.9
20260502044530 51 271 0.0 0.0 0.00 0.00 0.00 75 1017.7
20260502043028 52 271 0.0 0.0 0.00 0.00 0.00 73 1017.4
20260502041551 52 271 0.0 0.9 0.00 0.00 0.00 73 1017.4
20260502040045 51 271 0.0 0.9 0.00 0.00 0.00 75 1017.2
20260502034527 50 302 0.0 1.7 0.00 0.00 0.00 79 1017.2
20260502033031 50 302 0.0 0.9 0.00 0.00 0.00 82 1017.4
20260502031526 51 302 0.0 0.0 0.00 0.00 0.00 84 1018.0
20260502030030 51 302 0.0 0.0 0.00 0.00 0.00 83 1018.2
20260502024525 51 302 0.0 0.0 0.00 0.00 0.00 80 1018.3
20260502023031 52 302 0.0 0.0 0.00 0.00 0.00 78 1018.3
20260502021523 52 302 0.0 0.0 0.00 0.00 0.00 79 1018.0
20260502020022 53 302 0.0 0.0 0.00 0.00 0.00 76 1018.1
20260502014529 53 302 0.0 0.0 0.00 0.00 0.00 76 1017.5
20260502013021 54 302 0.0 0.0 0.00 0.00 0.00 73 1017.4
20260502011521 55 302 0.0 0.0 0.00 0.00 0.00 70 1017.1